TimeEDT,TemperatureF,Dew PointF,Humidity,Sea Level PressureIn,VisibilityMPH,Wind Direction,Wind SpeedMPH,Gust SpeedMPH,PrecipitationIn,Events,Conditions,WindDirDegrees,DateUTC
12:53 AM,43.0,39.0,86,29.96,10.0,Calm,Calm,-,N/A,,Clear,0,2013-03-22 04:53:00
1:53 AM,41.0,39.0,93,29.96,10.0,Calm,Calm,-,N/A,,Clear,0,2013-03-22 05:53:00
2:53 AM,39.0,37.0,93,29.95,10.0,Calm,Calm,-,N/A,,Clear,0,2013-03-22 06:53:00
3:53 AM,39.9,37.9,93,29.95,10.0,Calm,Calm,-,N/A,,Clear,0,2013-03-22 07:53:00
4:53 AM,41.0,37.9,89,29.95,10.0,Calm,Calm,-,N/A,,Clear,0,2013-03-22 08:53:00
5:53 AM,39.9,37.9,93,29.96,10.0,Calm,Calm,-,N/A,,Overcast,0,2013-03-22 09:53:00
6:53 AM,45.0,41.0,86,29.99,10.0,Calm,Calm,-,N/A,,Mostly Cloudy,0,2013-03-22 10:53:00
7:53 AM,50.0,42.1,74,30.01,10.0,NE,6.9,-,N/A,,Clear,50,2013-03-22 11:53:00
8:53 AM,53.1,39.9,61,30.01,10.0,ENE,10.4,-,N/A,,Clear,60,2013-03-22 12:53:00
9:53 AM,61.0,37.0,41,30.03,10.0,East,10.4,-,N/A,,Clear,80,2013-03-22 13:53:00
10:53 AM,63.0,36.0,37,30.03,10.0,East,11.5,-,N/A,,Scattered Clouds,80,2013-03-22 14:53:00
11:53 AM,68.0,35.1,30,30.01,10.0,ESE,11.5,-,N/A,,Scattered Clouds,110,2013-03-22 15:53:00
12:53 PM,73.0,43.0,34,30.00,10.0,South,9.2,16.1,N/A,,Partly Cloudy,170,2013-03-22 16:53:00
1:24 PM,75.2,46.4,36,29.98,8.0,SE,6.9,-,N/A,,Partly Cloudy,140,2013-03-22 17:24:00
1:53 PM,77.0,45.0,32,29.97,10.0,Variable,5.8,-,N/A,,Clear,0,2013-03-22 17:53:00
2:11 PM,77.0,44.6,32,29.96,10.0,Variable,6.9,-,N/A,,Partly Cloudy,0,2013-03-22 18:11:00
2:53 PM,77.0,44.1,31,29.95,10.0,South,9.2,-,N/A,,Mostly Cloudy,180,2013-03-22 18:53:00
3:53 PM,77.0,41.0,28,29.93,10.0,SSW,10.4,-,N/A,,Mostly Cloudy,200,2013-03-22 19:53:00
4:53 PM,72.0,52.0,49,29.92,10.0,SE,3.5,-,0.00,,Overcast,130,2013-03-22 20:53:00
5:53 PM,72.0,51.1,48,29.93,10.0,East,4.6,-,N/A,,Overcast,90,2013-03-22 21:53:00
6:53 PM,69.1,55.9,63,29.94,10.0,NNE,6.9,-,0.00,Rain,Light Rain,30,2013-03-22 22:53:00
7:53 PM,68.0,55.0,63,29.96,10.0,NNE,3.5,-,N/A,,Overcast,20,2013-03-22 23:53:00
8:06 PM,66.2,55.4,68,29.96,10.0,Calm,Calm,-,N/A,,Overcast,0,2013-03-23 00:06:00
8:53 PM,66.0,57.0,73,29.96,10.0,NNE,3.5,-,N/A,,Mostly Cloudy,20,2013-03-23 00:53:00
9:25 PM,66.2,57.2,73,29.99,10.0,ENE,3.5,-,N/A,,Overcast,60,2013-03-23 01:25:00
9:53 PM,66.9,57.9,73,29.99,10.0,East,3.5,-,N/A,,Overcast,100,2013-03-23 01:53:00
10:53 PM,66.0,57.9,75,30.00,10.0,ESE,6.9,-,N/A,,Overcast,110,2013-03-23 02:53:00
11:35 PM,64.4,59.0,83,30.00,10.0,East,5.8,-,N/A,,Mostly Cloudy,100,2013-03-23 03:35:00
11:53 PM,64.9,60.1,84,30.00,10.0,ESE,5.8,-,N/A,,Overcast,110,2013-03-23 03:53:00